Location: Unspecified
(35.7250°N, 0.0000°E)
Time: 05:57:31
(UTC+00:00)

Vanguard 1 Rocket - Pass Details

Date: 24 June 2019
Orbit: 650 x 4226 km, 34.3° (Epoch: 12 October)

Event Time Altitude Azimuth Distance (km) Brightness Sun altitude
Rises 20:01:22 0° 275° (W) 6,503 12.9 -7.9°
Reaches altitude 10° 20:06:29 10° 275° (W) 4,900 12.1 -8.7°
Maximum altitude 20:18:32 76° 192° (SSW) 1,373 8.2 -10.6°
Enters shadow 20:24:21 12° 108° (ESE) 2,503 9.1 -11.6°
Drops below altitude 10° 20:24:44 10° 108° (ESE) 2,637 - -11.6°
Sets 20:26:43 0° 106° (ESE) 3,376 - -11.9°
